Regional Weather Roundup
Issued by NWS

Home | Current Version | Previous Version | Graphics & Text | Print | Product List | Glossary Off
Versions: 1 2 3 4 5 6 7 8 9 10 11 12 13 14 15 16 17 18 19 20 21 22 23 24 25 26 27 28 29 30 31 32 33 34 35 36 37 38 39 40 41 42 43 44 45 46 47 48 49 50

000
ASUS43 KFSD 250710
RWRSD

WEATHER ROUNDUP FOR SOUTH DAKOTA
NATIONAL WEATHER SERVICE SIOUX FALLS SD
200 AM CDT SAT APR 25 2015

NOTE: "FAIR" INDICATES FEW OR NO CLOUDS BELOW 12,000 FEET WITH NO
SIGNIFICANT WEATHER AND/OR OBSTRUCTIONS TO VISIBILITY.


SDZ001>005-009-010-012>017-250800-
NORTHWEST AND NORTH CENTRAL SOUTH DAKOTA

CITY           SKY/WX    TMP DP  RH WIND       PRES   REMARKS
BUFFALO          N/A     46  35  65 E10       29.58R
FAITH            N/A     42  38  85 NE10      29.63R
MOBRIDGE       CLOUDY    47  43  86 E15G22    29.64R
$$

SDZ012>016-024>037-041>051-057-063-072>074-250800-
SOUTHWEST AND SOUTH CENTRAL SOUTH DAKOTA

CITY           SKY/WX    TMP DP  RH WIND       PRES   REMARKS
RAPID CTY ARPT CLEAR     45  40  82 N10       29.63R
PIERRE         PTCLDY    48  43  82 NE16      29.59R
CUSTER         PTCLDY    36  33  89 CALM      29.69R
ELLSWORTH AFB  CLEAR     51  40  64 N7        29.63R
PHILIP         MOCLDY    50  44  80 NE9       29.60R
PINE RIDGE     PTCLDY    45  42  89 CALM      29.63S
SPEARFISH      FAIR      39  34  81 MISG      29.66R
WINNER         FAIR      57  46  66 NW3       29.55R
$$

SDZ004>011-016>023-039-040-250800-
NORTHEAST SOUTH DAKOTA

CITY           SKY/WX    TMP DP  RH WIND       PRES   REMARKS
ABERDEEN       CLOUDY    46  43  89 NE14      29.68R
WATERTOWN      LGT RAIN  43  42  97 E15G25    29.65R FOG
BROOKINGS      CLOUDY    46  46 100 SE18      29.64F
SISSETON         N/A     44  42  93 SE15      29.72S
$$

SDZ017-020-022-023-036>040-048>070-250800-
SOUTHEAST SOUTH DAKOTA

CITY           SKY/WX    TMP DP  RH WIND       PRES   REMARKS
SIOUX FALLS    RAIN      48  46  93 E14       29.64F FOG
HURON          CLOUDY    51  47  86 SE23G31   29.59R
CHAMBERLAIN    CLOUDY    51  47  86 NE6       29.58S
MITCHELL       LGT RAIN  52  50  93 E24G31    29.57R
YANKTON        CLOUDY    54  46  76 E9        29.58R
$$

ABBREVIATIONS USED IN REMARKS
   TC - TEMPERATURE IN CELSIUS
  WCI - WIND CHILL INDEX
   HX - HEAT INDEX
  VSB - VISIBILITY



USA.gov is the U.S. government's official web portal to all federal, state and local government web resources and services.